Probability
3 3 3 2 1 0 0 0 0 0 0 0 0 0 0 0 1 0 0 0 0 0 0 1 3 5 6 5 4 3 3 2 1 0 0 1 2 2 2 2 1 1 1
3 3 3 2 1 0 0 0 0 0 0 0 0 0 0 0 1 1 0 0 0 0 0 1 2 4 6 5 4 3 3 2 0 0 0 0 1 1 2 2 2 1 1
3 3 3 1 0 0 0 0 0 0 0 0 0 0 0 0 1 1 1 0 0 0 0 0 1 3 5 6 4 4 3 2 1 1 0 0 0 1 1 3 4 3 2
3 3 2 1 0 0 0 0 0 0 0 0 0 0 0 0 0 0 1 1 0 0 0 0 1 2 4 6 5 5 5 4 3 2 1 0 1 2 2 3 5 5 5
2 2 1 0 0 0 0 0 0 0 0 0 0 0 0 0 0 0 0 0 0 0 0 0 0 1 3 5 6 6 5 5 4 4 3 2 2 3 3 4 6 6 5
1 1 0 0 0 0 0 0 0 0 0 0 0 0 0 0 0 0 0 0 0 0 0 0 0 0 1 3 5 5 5 4 4 4 4 3 3 3 3 4 5 5 5
0 0 0 0 0 0 0 0 0 0 0 0 0 0 0 0 0 0 0 0 0 0 0 0 0 0 0 1 2 3 4 4 4 4 4 4 3 2 2 3 4 5 5
0 0 0 0 0 0 0 0 0 0 0 0 0 0 0 0 0 0 0 0 0 0 0 0 0 0 0 0 0 1 2 4 4 4 4 3 2 1 1 1 3 4 5
0 0 0 0 0 0 0 0 0 0 0 0 0 0 0 0 0 0 0 0 0 0 0 0 0 0 0 0 0 0 0 2 3 4 4 3 2 1 0 0 1 3 4
1 0 0 0 0 0 0 0 0 0 0 0 0 0 0 0 0 0 0 0 0 0 0 0 0 0 0 0 0 0 0 0 1 3 4 4 3 2 1 0 0 1 2
2 1 0 0 0 0 0 0 0 0 0 0 0 0 0 0 0 0 0 0 0 0 0 0 0 0 0 0 0 0 0 0 0 2 3 4 3 3 2 1 0 1 2
2 2 1 0 0 0 0 0 0 0 0 0 0 0 0 0 0 0 0 0 0 0 0 0 0 0 0 0 0 0 0 0 0 0 1 2 2 2 2 2 1 0 1
1 1 1 1 0 0 0 0 0 0 0 0 0 0 0 0 0 0 0 0 0 0 0 0 0 0 0 0 0 0 0 0 0 0 0 0 1 1 1 1 1 0 0
0 0 1 1 1 0 0 0 0 0 0 0 0 0 0 0 0 0 0 0 0 0 0 0 0 0 0 0 0 0 0 0 0 0 0 0 0 0 0 0 0 0 0
0 0 0 0 1 1 0 0 0 0 0 0 0 0 0 0 0 0 0 0 0 0 0 0 0 0 0 0 0 0 0 0 0 0 0 0 0 0 0 0 0 0 0
0 0 0 0 0 0 0 0 0 0 0 0 0 0 0 0 0 0 0 0 0 0 0 0 0 0 0 0 0 0 0 0 0 0 0 0 0 0 0 0 0 0 0
0 0 0 0 0 0 0 1 0 0 1 1 0 0 0 0 0 0 0 0 0 0 0 0 0 0 0 0 0 0 0 0 0 0 0 0 0 0 0 0 0 0 0
0 0 0 0 0 0 0 0 0 0 1 1 0 0 0 0 0 0 0 0 0 0 0 0 0 0 0 0 0 0 0 0 0 0 0 0 0 0 0 0 0 0 0
0 0 0 0 0 0 0 0 0 0 1 1 0 0 0 0 0 0 0 0 0 0 0 0 0 0 0 0 0 0 0 0 0 0 0 0 0 0 0 0 0 0 0
0 0 0 0 0 0 0 1 0 0 0 0 0 0 0 0 0 0 0 0 0 0 0 0 0 0 0 0 0 0 0 0 0 0 0 0 0 0 0 0 0 0 0
0 0 0 0 0 0 0 0 0 0 0 0 0 0 0 0 0 0 0 0 0 0 0 0 0 0 0 0 0 0 0 0 0 0 0 0 0 0 0 0 0 0 0
0 0 0 0 0 0 0 0 0 0 0 0 0 0 0 0 0 0 0 0 0 0 0 0 0 0 0 0 0 0 0 0 0 0 0 0 0 0 0 0 0 0 0
0 0 0 0 0 0 0 0 0 0 0 0 0 0 0 0 0 0 0 0 0 0 0 0 0 0 0 0 0 0 0 0 0 0 0 0 0 0 0 0 0 0 0
0 0 0 0 0 0 0 0 0 0 0 0 0 0 0 0 0 0 0 0 0 0 0 0 0 0 0 0 0 0 0 0 0 0 0 0 0 0 0 0 0 0 0
0 0 0 0 0 0 0 0 0 0 0 0 0 0 0 0 0 0 0 0 0 0 0 0 0 0 0 0 0 0 0 0 0 0 0 0 0 0 0 0 0 0 0
0 0 0 0 0 0 0 0 0 0 0 0 0 0 0 0 0 0 0 0 0 0 0 0 0 0 0 0 0 0 0 0 0 0 0 0 0 0 0 0 0 0 0
Wind_Speed
1 1 1 0 0 0 0 0 0 1 1 1 1 1 1 1 1 1 1 3 3 3 4 3 3 3 3 3 4 4 4 4 4 4 4 4 5 5 5 5 5 6 6
2 1 1 1 0 0 0 0 1 1 1 1 1 1 1 1 1 1 1 2 3 3 3 3 4 4 4 4 4 4 4 5 5 5 5 5 6 6 6 6 6 7 7
2 2 1 1 1 1 0 0 0 1 1 2 1 1 1 1 1 2 1 1 1 3 3 4 4 4 5 5 5 5 5 4 5 5 5 6 6 7 7 7 7 8 8
2 2 1 1 1 1 0 0 0 1 1 2 2 2 1 1 2 2 1 1 1 1 2 4 5 5 5 5 5 5 5 5 5 6 6 6 7 8 8 8 8 9 9
2 2 2 1 1 1 1 0 0 0 1 2 2 2 2 1 1 1 1 1 1 1 1 3 4 4 5 5 5 5 5 6 6 7 7 8 8 9 10 10 9 10 10
1 2 2 1 1 1 1 1 1 0 1 1 2 2 2 2 1 1 1 1 0 1 1 1 2 3 5 6 6 6 7 7 8 8 8 8 9 10 11 11 11 11 11
1 2 1 1 1 2 2 1 1 0 1 1 1 2 2 1 0 1 1 0 0 1 1 1 1 1 2 5 6 7 7 8 8 9 9 9 10 11 12 12 12 12 12
1 2 2 2 2 1 1 1 1 1 0 1 0 1 2 3 2 1 1 1 1 1 1 1 1 1 1 1 4 7 8 8 9 9 9 10 10 11 12 11 11 11 12
2 2 3 3 2 2 2 2 2 2 1 1 0 1 1 2 2 2 1 1 1 1 1 1 2 1 1 1 2 5 7 9 10 10 11 11 11 11 12 12 13 12 12
1 1 2 2 2 2 2 2 2 2 2 2 1 1 1 1 1 2 2 1 1 1 2 2 2 2 2 1 3 5 7 9 10 11 11 12 12 12 12 12 13 12 12
1 1 1 2 2 2 2 2 2 2 2 2 2 1 1 1 2 2 3 3 2 2 2 2 1 1 2 2 2 5 8 10 11 11 12 12 12 13 13 13 14 13 13
1 1 1 1 1 1 2 2 2 2 2 2 2 2 2 2 2 2 3 3 3 3 2 2 1 1 2 2 4 7 8 9 10 11 11 12 12 13 13 14 15 14 13
1 2 1 1 1 1 1 1 1 2 2 2 2 2 2 3 2 2 2 2 3 3 2 1 1 1 2 2 3 9 8 10 11 11 11 12 12 13 13 13 14 14 14
2 2 1 1 1 1 1 1 1 2 2 2 2 2 2 2 2 2 2 2 2 3 2 3 2 1 2 2 5 9 6 11 12 12 12 12 12 12 13 14 14 14 14
1 1 1 1 1 1 1 1 1 2 2 2 2 2 2 2 2 2 2 2 3 3 4 3 2 2 2 3 6 4 5 10 12 12 12 12 13 13 12 13 14 14 14
1 1 1 1 1 1 1 1 1 2 1 2 2 2 2 2 2 2 2 2 2 3 4 3 3 3 4 4 7 5 5 12 12 13 13 13 13 13 13 13 14 14 14
1 1 1 1 1 2 2 2 2 1 2 2 2 2 3 2 2 2 1 2 2 2 4 4 2 3 3 4 5 4 4 5 5 12 13 13 13 13 13 13 14 14 14
1 1 1 1 1 1 1 1 2 2 2 3 3 2 3 2 2 2 2 2 3 3 3 5 4 3 4 4 4 5 5 5 4 10 13 13 13 13 13 13 13 14 14
1 1 1 1 1 2 2 2 2 2 3 3 3 2 3 2 3 2 2 3 3 3 3 4 4 3 3 3 4 5 5 4 5 8 11 12 13 13 14 13 13 14 14
1 1 1 1 1 2 2 2 2 2 2 2 2 3 3 3 4 4 3 3 3 3 3 3 4 3 3 3 3 4 5 4 5 6 7 9 11 13 14 14 14 13 12
1 1 1 1 1 1 1 2 2 2 2 2 2 2 3 4 5 4 3 2 3 3 3 3 3 3 3 3 3 3 5 5 5 3 4 5 6 6 7 11 12 12 12
1 1 1 1 2 2 3 3 2 2 2 2 2 3 3 4 5 6 6 5 4 3 3 3 3 4 5 4 4 4 4 5 5 3 4 7 5 5 5 5 10 13 13
1 1 1 1 2 3 4 3 3 1 1 1 2 2 3 3 4 3 4 6 6 7 6 3 4 5 5 4 4 5 5 5 6 5 5 7 4 6 5 7 13 14 13
1 1 1 1 2 3 4 4 3 1 1 1 2 2 2 3 3 3 2 2 3 4 5 3 3 4 4 4 4 5 5 6 6 4 3 6 5 5 6 6 10 11 12
1 1 0 1 1 3 4 4 3 1 1 2 2 2 2 2 5 5 2 2 3 4 6 7 6 6 7 8 6 3 3 4 6 4 2 3 4 6 5 4 6 10 11
1 1 1 1 1 2 4 4 3 1 1 1 2 2 4 4 5 5 2 2 3 4 3 4 5 6 5 6 7 4 3 5 5 4 2 3 4 4 5 4 4 5 6
Wind_Direction
140 136 124 82 8 356 350 315 314 333 314 293 281 286 289 285 274 256 274 279 286 291 296 298 301 304 300 300 303 301 297 297 293 290 290 293 296 290 288 286 287 283 274
144 147 151 168 240 259 238 236 277 294 297 285 282 295 292 286 279 278 273 287 290 294 293 295 299 300 299 299 301 306 306 301 298 295 293 293 293 293 285 287 287 287 283
147 148 158 185 230 230 195 98 359 345 330 322 294 285 278 277 277 278 276 270 287 303 304 302 300 301 302 299 303 304 303 303 309 309 305 300 297 296 289 282 283 282 281
149 149 155 204 224 165 139 167 87 334 326 325 304 284 277 267 265 266 263 265 277 296 314 318 312 302 301 302 302 306 307 309 310 309 306 307 303 296 294 283 281 280 279
160 154 163 188 171 142 153 214 149 243 295 320 296 277 271 261 254 268 256 252 284 325 320 326 331 327 320 316 312 312 310 311 310 307 305 302 302 301 295 286 280 277 277
170 163 164 169 158 155 189 196 215 287 261 297 306 307 287 269 247 246 233 218 126 345 354 339 332 327 333 330 324 315 309 307 307 306 305 305 301 298 298 291 279 276 275
185 176 176 171 169 187 206 198 172 217 317 342 359 330 318 308 255 263 230 196 317 326 348 331 321 314 323 335 332 323 316 310 307 307 303 302 303 301 298 297 288 278 274
211 192 175 178 190 190 196 178 144 161 312 13 75 359 330 330 334 325 286 231 272 314 323 320 309 290 303 307 320 324 316 311 308 309 310 306 305 304 304 304 299 293 283
228 211 189 176 184 182 196 204 179 166 202 261 185 153 173 258 306 299 292 297 314 315 310 301 301 307 312 307 302 316 322 317 314 309 309 309 304 307 308 305 301 295 290
246 216 191 179 184 188 201 214 199 188 177 207 242 237 230 200 221 291 290 282 294 292 296 308 311 311 316 308 312 323 323 321 316 314 312 310 311 309 310 310 308 301 298
259 241 207 192 197 201 206 213 212 203 191 200 204 213 261 269 215 221 273 292 300 278 283 272 281 307 318 315 306 318 324 321 318 315 314 311 309 310 312 310 307 298 296
259 249 221 207 211 208 205 215 213 210 205 209 206 198 207 218 216 219 244 272 283 286 285 261 261 277 304 312 319 329 323 321 318 317 318 317 313 309 310 311 310 302 298
255 239 223 213 208 211 207 206 222 231 207 204 205 213 222 233 231 222 232 262 280 289 286 276 252 274 313 319 316 325 319 317 313 313 314 314 313 312 310 308 307 306 299
237 232 202 198 204 197 211 220 248 231 190 197 214 225 232 242 232 220 211 227 280 287 275 271 278 270 316 314 311 324 317 316 315 312 309 309 309 308 311 308 304 304 300
231 206 211 193 212 197 204 203 246 242 200 204 216 229 249 255 242 234 220 212 215 261 272 268 271 291 309 298 308 307 299 309 314 313 309 306 305 305 305 307 306 303 302
219 186 200 214 220 215 210 204 226 250 215 227 221 221 241 256 244 239 234 237 219 231 258 261 264 295 306 309 310 305 298 312 312 311 308 307 304 302 303 303 303 301 299
220 218 228 230 231 227 223 215 229 243 223 235 237 229 239 245 250 243 230 235 239 231 256 274 266 283 283 291 304 300 297 294 299 307 309 307 304 303 301 301 300 298 296
240 232 241 241 236 238 232 219 237 248 238 234 242 239 249 253 255 253 236 239 241 236 239 268 277 277 276 285 291 298 304 304 297 304 309 310 308 305 301 301 302 300 297
260 262 249 252 254 248 235 233 238 251 256 247 243 241 248 242 252 253 249 248 245 250 240 254 273 275 281 292 300 298 294 292 300 304 305 306 308 307 302 302 301 300 298
234 255 269 261 265 262 244 240 241 247 253 260 250 239 244 236 241 246 246 249 253 257 251 257 270 281 282 288 291 297 304 302 304 305 301 305 309 310 307 305 303 302 299
255 256 265 278 285 276 247 251 254 249 259 272 279 265 259 261 265 261 260 249 251 254 259 263 271 285 287 302 301 296 302 308 299 289 301 301 303 300 301 304 306 302 301
266 249 241 256 279 286 284 278 267 259 259 263 280 285 277 277 281 285 289 284 276 266 262 263 274 280 283 285 288 295 302 310 305 302 309 300 296 293 294 291 300 303 303
203 238 251 264 284 283 286 285 291 284 260 259 272 289 295 291 292 280 288 293 293 295 288 277 271 274 281 286 290 294 292 290 282 290 301 291 288 289 291 298 305 305 307
216 228 252 268 280 285 295 303 309 315 281 278 273 268 276 288 287 278 280 294 291 295 297 287 261 272 281 283 277 279 279 286 283 280 268 279 287 289 296 294 301 305 314
224 232 274 282 298 306 308 307 312 294 292 299 296 293 286 279 299 301 298 293 299 302 309 311 306 308 312 314 312 309 304 301 297 290 266 270 285 297 293 284 293 305 314
215 222 279 287 284 293 303 314 313 289 271 291 304 305 305 303 311 318 295 274 285 293 303 312 316 319 318 316 318 306 291 291 293 289 276 288 290 309 303 284 285 296 304